User: anonymous   Login
Location: Pine Mountain Observatory
(43.7910°N, 120.9377°W)
Time: 03:34:24
(UTC-08:00)
Language:

IDEFIX/ARIANE 42P - Orbit

View from above orbital plane
View from above orbital plane
View from above satellite
View from above satellite

Ground track
Ground track

The orbit data is extracted from the following two-line orbital elements,

1 27422U 02021B   16037.17819985  .00000019  00000-0  23567-4 0  9994
2 27422  98.2386  58.9420 0011146 269.9126  90.0780 14.29229566715688
Epoch (UTC): 06 February 2016 04:16:36
Eccentricity: 0.0011146
inclination: 98.2386°
perigee height: 786 km
apogee height: 802 km
right ascension of ascending node: 58.9420°
argument of perigee: 269.9126°
revolutions per day: 14.29229566
mean anomaly at epoch: 90.0780°
orbit number at epoch: 71568

The dashed part of the orbit path shows where the satellite is in the earth's shadow,  

DLR